Location: Sungai Apap
(2.6167°N, 113.3833°E)
Time: 13:28:32
(UTC+00:00)

deb Ariane - Pass Details

Date: 25 May 2024
Orbit: 478 x 35228 km, 6.6° (Epoch: 14 June)

Event Time Altitude Azimuth Distance (km) Brightness Sun altitude
Rises 21:42:43 0° 276° (W) 15,421 9.6 -8.5°
Reaches altitude 10° 22:03:58 10° 276° (W) 8,573 8.3 -3.6°
Maximum altitude 22:22:16 82° 189° (S) 1,114 4.4 0.6°
Drops below altitude 10° 22:26:08 10° 101° (E) 2,027 6.8 1.5°
Sets 22:27:32 0° 100° (E) 2,696 7.5 1.9°
